User: anonymous   Login
Location: Unspecified
(0.0000°N, 0.0000°E)
Time: 06:38:01
(UTC+00:00)
Language:

AUBIESAT-1 - Orbit

View from above orbital plane
View from above orbital plane
View from above satellite
View from above satellite

Ground track
Ground track

The orbit data is extracted from the following two-line orbital elements,

1 37854U 11061E   19082.14682822  .00000959  00000-0  57126-4 0  9997
2 37854 101.7136 295.3634 0161415 325.8554  33.2358 15.06207943403817
Epoch (UTC): 23 March 2019 03:31:25
Eccentricity: 0.0161415
inclination: 101.7136°
perigee height: 436 km
apogee height: 659 km
right ascension of ascending node: 295.3634°
argument of perigee: 325.8554°
revolutions per day: 15.06207943
mean anomaly at epoch: 33.2358°
orbit number at epoch: 40381

The dashed part of the orbit path shows where the satellite is in the earth's shadow,  

DLR